Location: ?ejeti?ky
(50.4060°N, 14.9016°E)
Time: 02:01:41
(UTC+00:00)

N. Korean satellite - Pass Details

Date: 10 December 2021
Orbit: 446 x 492 km, 97.3° (Epoch: 16 January)

Event Time Altitude Azimuth Distance (km) Brightness Sun altitude
Rises 03:25:48 0° 27° (NNE) 2,463 10.5 -31.2°
Reaches altitude 10° 03:28:21 10° 48° (NE) 1,583 9.7 -30.8°
Enters shadow 03:29:06 13° 59° (ENE) 1,392 9.5 -30.7°
Exits shadow 03:31:31 16° 111° (ESE) 1,250 9.3 -30.3°
Drops below altitude 10° 03:33:02 10° 136° (SE) 1,576 9.6 -30.1°
Sets 03:35:33 0° 157° (SSE) 2,446 10.4 -29.7°
